Regional Weather Roundup
Issued by NWS

Home | Current Version | Previous Version | Graphics & Text | Print | Product List | Glossary On
Versions: 1 2 3 4 5 6 7 8 9 10 11 12 13 14 15 16 17 18 19 20 21 22 23 24 25 26 27 28 29 30 31 32 33 34 35 36 37 38 39 40 41 42 43 44 45 46 47 48 49 50
000
ASUS44 KMEG 141800
RWRTN
TENNESSEE HOURLY STATE WEATHER ROUNDUP
NATIONAL WEATHER SERVICE MEMPHIS TN
1200 PM CST THU DEC 14 2017

TNZ002-004-019-021-049-052-054-088>092-141900-
WEST TENNESSEE

CITY           SKY/WX    TMP DP  RH WIND       PRES   REMARKS
MEMPHIS INTL   MOSUNNY   48  28  46 N10       30.03F
NWS MEMPHIS      N/A     46 N/A N/A MISG        N/A
JACKSON        MOSUNNY   46  28  49 N9        30.04F
DYERSBURG      CLOUDY    42  26  53 N8        30.06F
$$

TNZ008-025-027-028-033-062-065-066-141900-
NORTH MIDDLE TENNESSEE

CITY           SKY/WX    TMP DP  RH WIND       PRES   REMARKS
NASHVILLE      CLOUDY    39  26  59 NW9       30.02F WCI  33
CLARKSVILLE    CLOUDY    35  20  54 N12       30.05S WCI  27
SMYRNA         CLOUDY    39  27  62 NW9       30.03S WCI  33
CROSSVILLE     MOSUNNY   38  26  62 CALM      29.92S
$$

TNZ061-075-076-078-094-096-097-141900-
SOUTH MIDDLE TENNESSEE

CITY           SKY/WX    TMP DP  RH WIND       PRES   REMARKS
WINCHESTER     SUNNY     45  30  57 VRB6      29.96F
$$

TNZ017-018-042-046-047-141900-
NORTHEAST TENNESSEE

CITY           SKY/WX    TMP DP  RH WIND       PRES   REMARKS
TRI CITIES     MOSUNNY   44  28  53 CALM      29.89S
$$

TNZ012-013-036-069-073-074-141900-
CENTRAL EAST TENNESSEE

CITY           SKY/WX    TMP DP  RH WIND       PRES   REMARKS
KNOXVILLE      MOSUNNY   47  32  56 SW8       29.91S
OAK RIDGE      MOSUNNY   48  29  47 VRB5      29.93S
$$

TNZ083-085-099-141900-
SOUTHEAST TENNESSEE

CITY           SKY/WX    TMP DP  RH WIND       PRES   REMARKS
CHATTANOOGA    MOSUNNY   50  29  44 CALM      29.95S
$$

SKY/WX REPORTED AS FAIR MEANS FEW OR NO CLOUDS BELOW
12 THOUSAND FEET.





USA.gov is the U.S. government's official web portal to all federal, state and local government web resources and services.